Miscellaneous Local Product
Issued by NWS Hastings, NE

Home | Current Version | Previous Version | Text Only | Print | Product List | Glossary On
Versions: 1 2 3 4 5 6 7 8 9 10 11 12 13 14 15 16 17 18 19 20 21 22 23 24 25 26 27 28 29 30 31 32 33 34 35 36 37 38 39 40 41 42 43 44 45 46 47 48 49 50
249
AXUS43 KGID 230902
MISGRI

GID CWA HOURLY WEATHER ROUNDUP
NATIONAL WEATHER SERVICE HASTINGS NE
400 AM CDT TUE MAY 23 2017

NOTE: "FAIR" INDICATES FEW OR NO CLOUDS BELOW 12,000 FEET WITH NO
SIGNIFICANT WEATHER AND/OR OBSTRUCTIONS TO VISIBILITY.

...SOUTH CENTRAL NEBRASKA...

CITY           SKY/WX    TMP DP  RH WIND       PRES   REMARKS
GRAND ISLAND   CLEAR     47  44  90 NW9       29.99F
HASTINGS       PTCLDY    48  44  86 NW8       30.00S
KEARNEY        CLEAR     48  43  81 NW9       30.02S
ORD            MOCLDY    46  41  82 NW8       29.99F
YORK           CLOUDY    48  45  87 NW10      29.97F
AURORA         CLOUDY    47  45  90 NW8       29.98S
LEXINGTON      CLEAR     45  42  92 W9        30.06R
HOLDREGE       PTCLDY    46  44  91 NW9       30.04S
HEBRON         PTCLDY    52  48  86 NW5       29.96S

...NEBRASKA PANHANDLE...

CITY           SKY/WX    TMP DP  RH WIND       PRES   REMARKS
CHADRON        CLOUDY    45  39  79 NW9       30.14F
ALLIANCE       CLOUDY    40  38  93 W9        30.12F WCI  34
SCOTTSBLUFF    CLEAR     36  33  89 NW6       30.17F WCI  31
SIDNEY         CLEAR     37  35  92 W9        30.16F WCI  30

...WESTERN AND NORTH CENTRAL NEBRASKA...

CITY           SKY/WX    TMP DP  RH WIND       PRES   REMARKS
VALENTINE      CLOUDY    48  42  80 W12       30.02F
AINSWORTH      CLOUDY    47  45  91 W8        30.01F
ONEILL         PTCLDY    45  41  88 W6        29.99S
BROKEN BOW     CLOUDY    47  43  86 NW15      30.03F
IMPERIAL       CLEAR     42  38  85 NW12      30.12S
NORTH PLATTE   PTCLDY    41  39  93 W7        30.08S
MCCOOK         CLEAR     45  42  89 NW16      30.08F

...EASTERN NEBRASKA...

CITY           SKY/WX    TMP DP  RH WIND       PRES   REMARKS
NORFOLK        CLEAR     46  41  82 NW7       29.94F
SO SIOUX CITY  PTCLDY    47  44  90 NW8       29.91F
TEKAMAH        CLEAR     50  43  77 W12       29.91S
COLUMBUS         N/A    N/A N/A N/A MISG        N/A
ALBION         CLEAR     46  42  88 NW7       29.97F
OMAHA EPPLEY   MOCLDY    50  44  80 NW9       29.90S
OFFUTT AFB     MOCLDY    51  46  84 NW8       29.90S
MILLARD        CLOUDY    53  48  84 NW7       29.91F
LINCOLN        PTCLDY    51  45  79 NW6       29.95S
NEBRASKA CITY  CLOUDY    52  45  76 N13       29.91R
BEATRICE       CLOUDY    50  47  91 NW5       29.95S
FALLS CITY     MOCLDY    54  50  86 NW10      29.89R

...NORTHERN KANSAS...

CITY           SKY/WX    TMP DP  RH WIND       PRES   REMARKS
GOODLAND       CLEAR     41  39  93 NW10      30.13R
HILL CITY      CLEAR     48  45  89 NW9       30.08R
HAYS           CLOUDY    51  45  79 NW15      30.04R
RUSSELL        MOCLDY    48  45  89 NW14      30.00R
CONCORDIA      CLOUDY    52  51  97 N6        29.96F
SALINA         CLOUDY    55  50  83 N12       29.94F
TOPEKA         PTCLDY    56  56 100 W8        29.89S



USA.gov is the U.S. government's official web portal to all federal, state and local government web resources and services.